H1 CPF 2 NER 2022 3 3 9 062 01 glonass121 H2 1000702 9121 36401 2022 3 3 0 0 0 2022 3 6 23 45 0 900 1 1 0 0 0 1 H9 10 0 59641 0.00000 0 23359628.058 9692317.872 3714200.850 10 0 59641 900.00000 0 23691651.804 9590856.899 487301.615 10 0 59641 1800.00000 0 23643712.401 9326635.872 -2749003.716 10 0 59641 2700.00000 0 23198810.735 8954707.996 -5932257.093 10 0 59641 3600.00000 0 22353288.812 8533080.781 -9001026.592 10 0 59641 4500.00000 0 21117101.665 8120075.253 -11896070.737 10 0 59641 5400.00000 0 19513543.377 7771681.315 -14561462.322 10 0 59641 6300.00000 0 17578437.582 7539018.757 -16945651.862 10 0 59641 7200.00000 0 15358824.365 7466009.171 -19002451.599 10 0 59641 8100.00000 0 12911195.777 7587355.668 -20691922.421 10 0 59641 9000.00000 0 10299350.419 7926915.081 -21981147.436 10 0 59641 9900.00000 0 7591953.265 8496531.656 -22844877.521 10 0 59641 10800.00000 0 4859899.072 9295382.784 -23266036.220 10 0 59641 11700.00000 0 2173586.199 10309866.731 -23236073.316 10 0 59641 12600.00000 0 -399787.903 11514040.163 -22755158.752 10 0 59641 13500.00000 0 -2798798.455 12870590.720 -21832211.153 10 0 59641 14400.00000 0 -4970125.886 14332307.479 -20484757.919 10 0 59641 15300.00000 0 -6870551.490 15843990.915 -18738626.936 10 0 59641 16200.00000 0 -8468531.886 17344724.871 -16627473.176 10 0 59641 17100.00000 0 -9745284.829 18770416.846 -14192146.859 10 0 59641 18000.00000 0 -10695338.951 20056500.324 -11479913.469 10 0 59641 18900.00000 0 -11326522.600 21140684.870 -8543539.446 10 0 59641 19800.00000 0 -11659390.860 21965636.384 -5440260.749 10 0 59641 20700.00000 0 -11726114.171 22481471.926 -2230654.857 10 0 59641 21600.00000 0 -11568875.708 22647960.678 1022560.601 10 0 59641 22500.00000 0 -11237846.445 22436334.835 4255777.174 10 0 59641 23400.00000 0 -10788825.667 21830630.898 7405765.795 10 0 59641 24300.00000 0 -10280649.748 20828502.312 10410940.242 10 0 59641 25200.00000 0 -9772482.207 19441467.611 13212586.233 10 0 59641 26100.00000 0 -9321103.263 17694583.065 15756029.459 10 0 59641 27000.00000 0 -8978316.751 15625554.157 17991717.620 10 0 59641 27900.00000 0 -8788586.650 13283324.535 19876193.940 10 0 59641 28800.00000 0 -8787004.795 10726203.777 21372942.487 10 0 59641 29700.00000 0 -8997676.231 8019614.614 22453089.083 10 0 59641 30600.00000 0 -9432590.009 5233556.059 23095945.156 10 0 59641 31500.00000 0 -10091021.715 2439890.190 23289385.569 10 0 59641 32400.00000 0 -10959490.946 -290433.257 23030055.241 10 0 59641 33300.00000 0 -12012273.190 -2890098.790 22323402.940 10 0 59641 34200.00000 0 -13212442.137 -5297981.107 21183544.044 10 0 59641 35100.00000 0 -14513396.437 -7461430.716 19632957.314 10 0 59641 36000.00000 0 -15860805.092 -9338196.918 17702023.567 10 0 59641 36900.00000 0 -17194888.726 -10897911.502 15428416.885 10 0 59641 37800.00000 0 -18452940.724 -12123075.219 12856361.312 10 0 59641 38700.00000 0 -19571982.940 -13009509.769 10035768.057 10 0 59641 39600.00000 0 -20491445.660 -13566260.033 7021270.072 10 0 59641 40500.00000 0 -21155761.115 -13814953.748 3871172.362 10 0 59641 41400.00000 0 -21516763.702 -13788647.802 646337.448 10 0 59641 42300.00000 0 -21535798.335 -13530210.914 -2590973.505 10 0 59641 43200.00000 0 -21185450.384 -13090311.149 -5778282.999 10 0 59641 44100.00000 0 -20450826.141 -12525092.395 -8854081.837 10 0 59641 45000.00000 0 -19330331.007 -11893636.366 -11758994.874 10 0 59641 45900.00000 0 -17835912.839 -11255315.214 -14436907.306 10 0 59641 46800.00000 0 -15992759.455 -10667144.154 -16836031.500 10 0 59641 47700.00000 0 -13838461.254 -10181243.594 -18909895.302 10 0 59641 48600.00000 0 -11421671.442 -9842515.899 -20618234.083 10 0 59641 49500.00000 0 -8800316.635 -9686633.503 -21927770.190 10 0 59641 50400.00000 0 -6039429.007 -9738422.737 -22812865.070 10 0 59641 51300.00000 0 -3208686.686 -10010711.972 -23256031.314 10 0 59641 52200.00000 0 -379761.380 -10503694.125 -23248293.869 10 0 59641 53100.00000 0 2376419.124 -11204832.725 -22789391.976 10 0 59641 54000.00000 0 4992381.858 -12089318.538 -21887815.945 10 0 59641 54900.00000 0 7406681.291 -13121060.926 -20560675.590 10 0 59641 55800.00000 0 9566226.634 -14254175.582 -18833400.215 10 0 59641 56700.00000 0 11428266.142 -15434908.947 -16739273.251 10 0 59641 57600.00000 0 12961944.114 -16603920.492 -14318808.042 10 0 59641 58500.00000 0 14149363.520 -17698827.831 -11618974.905 10 0 59641 59400.00000 0 14986107.764 -18656907.346 -8692293.077 10 0 59641 60300.00000 0 15481197.911 -19417835.213 -5595804.627 10 0 59641 61200.00000 0 15656485.930 -19926350.848 -2389950.695 10 0 59641 62100.00000 0 15545509.193 -20134727.304 862626.854 10 0 59641 63000.00000 0 15191855.175 -20004940.838 4098333.033 10 0 59641 63900.00000 0 14647107.008 -19510444.611 7253889.603 10 0 59641 64800.00000 0 13968459.277 -18637468.622 10267599.578 10 0 59641 65700.00000 0 13216107.979 -17385788.753 13080578.725 10 0 59641 66600.00000 0 12450528.459 -15768931.218 15637927.285 10 0 59641 67500.00000 0 11729759.766 -13813803.555 17889816.860 10 0 59641 68400.00000 0 11106813.022 -11559768.354 19792469.818 10 0 59641 69300.00000 0 10627315.372 -9057200.164 21309011.350 10 0 59641 70200.00000 0 10327490.017 -6365588.031 22410177.816 10 0 59641 71100.00000 0 10232557.491 -3551265.110 23074868.541 10 0 59641 72000.00000 0 10355624.541 -684862.201 23290531.902 10 0 59641 72900.00000 0 10697105.472 2161407.290 23053380.378 10 0 59641 73800.00000 0 11244697.839 4916517.299 22368432.754 10 0 59641 74700.00000 0 11973910.730 7513338.937 21249385.127 10 0 59641 75600.00000 0 12849120.729 9891178.900 19718315.621 10 0 59641 76500.00000 0 13825108.818 11998043.110 17805230.543 10 0 59641 77400.00000 0 14849011.876 13792534.355 15547462.532 10 0 59641 78300.00000 0 15862605.760 15245308.483 12988933.493 10 0 59641 79200.00000 0 16804823.839 16340032.217 10179297.288 10 0 59641 80100.00000 0 17614405.720 17073806.256 7172978.953 10 0 59641 81000.00000 0 18232566.113 17457039.310 4028128.708 10 0 59641 81900.00000 0 18605573.405 17512781.031 805510.164 10 0 59641 82800.00000 0 18687131.537 17275543.600 -2432656.805 10 0 59641 83700.00000 0 18440467.095 16789662.377 -5623877.691 10 0 59641 84600.00000 0 17840035.580 16107264.436 -8706568.326 10 0 59641 85500.00000 0 16872776.382 15285929.479 -11621222.020 10 0 59642 0.00000 0 15538864.336 14386140.027 -14311538.025 10 0 59642 900.00000 0 13851925.077 13468625.606 -16725492.700 10 0 59642 1800.00000 0 11838705.699 12591711.666 -18816330.660 10 0 59642 2700.00000 0 9538209.793 11808781.074 -20543462.978 10 0 59642 3600.00000 0 7000331.705 11165954.431 -21873252.298 10 0 59642 4500.00000 0 4284042.819 10700085.306 -22779671.548 10 0 59642 5400.00000 0 1455201.785 10437154.525 -23244823.136 10 0 59642 6300.00000 0 -1415923.902 10391131.756 -23259307.778 10 0 59642 7200.00000 0 -4257325.031 10563353.856 -22822434.402 10 0 59642 8100.00000 0 -6997998.250 10942448.456 -21942265.089 10 0 59642 9000.00000 0 -9570661.538 11504808.890 -20635491.806 10 0 59642 9900.00000 0 -11914325.147 12215603.532 -18927144.619 10 0 59642 10800.00000 0 -13976610.714 13030279.929 -16850134.360 10 0 59642 11700.00000 0 -15715720.592 13896502.732 -14444636.063 10 0 59642 12600.00000 0 -17101973.256 14756445.217 -11757323.105 10 0 59642 13500.00000 0 -18118838.393 15549338.165 -8840465.478 10 0 59642 14400.00000 0 -18763426.167 16214167.743 -5750909.096 10 0 59642 15300.00000 0 -19046408.308 16692406.583 -2548956.330 10 0 59642 16200.00000 0 -18991373.399 16930659.890 702829.255 10 0 59642 17100.00000 0 -18633643.437 16883111.324 3940868.777 10 0 59642 18000.00000 0 -18018602.543 16513661.716 7101837.531 10 0 59642 18900.00000 0 -17199610.356 15797666.857 10123930.505 10 0 59642 19800.00000 0 -16235591.001 14723198.104 12948096.263 10 0 59642 20700.00000 0 -15188402.726 13291770.688 15519212.289 10 0 59642 21600.00000 0 -14120102.687 11518508.013 17787176.687 10 0 59642 22500.00000 0 -13090225.426 9431735.070 19707893.403 10 0 59642 23400.00000 0 -12153192.331 7072018.991 21244130.972 10 0 59642 24300.00000 0 -11355962.804 4490698.561 22366238.248 10 0 59642 25200.00000 0 -10736026.511 1747966.150 23052704.079 10 0 59642 26100.00000 0 -10319820.556 -1089415.791 23290551.637 10 0 59642 27000.00000 0 -10121636.475 -3950666.798 23075561.850 10 0 59642 27900.00000 0 -10143060.503 -6763701.749 22412323.988 10 0 59642 28800.00000 0 -10372967.678 -9457892.239 21314114.898 10 0 59642 29700.00000 0 -10788066.879 -11966761.938 19802611.630 10 0 59642 30600.00000 0 -11353970.943 -14230505.441 17907445.091 10 0 59642 31500.00000 0 -12026744.409 -16198228.254 15665605.120 10 0 59642 32400.00000 0 -12754862.032 -17829817.824 13120709.714 10 0 59642 33300.00000 0 -13481494.758 -19097371.133 10322153.234 10 0 59642 34200.00000 0 -14147026.923 -19986122.850 7324150.316 10 0 59642 35100.00000 0 -14691699.434 -20494838.667 4184693.643 10 0 59642 36000.00000 0 -15058269.077 -20635660.253 964444.959 10 0 59642 36900.00000 0 -15194573.772 -20433410.458 -2274420.295 10 0 59642 37800.00000 0 -15055897.775 -19924389.214 -5469393.859 10 0 59642 38700.00000 0 -14607039.104 -19154711.048 -8558819.936 10 0 59642 39600.00000 0 -13823993.712 -18178253.453 -11483063.682 10 0 59642 40500.00000 0 -12695186.382 -17054300.997 -14185642.226 10 0 59642 41400.00000 0 -11222196.628 -15844982.226 -16614298.190 10 0 59642 42300.00000 0 -9419948.234 -14612604.772 -18721996.508 10 0 59642 43200.00000 0 -7316352.536 -13416998.309 -20467826.673 10 0 59642 44100.00000 0 -4951417.609 -12312974.801 -21817793.921 10 0 59642 45000.00000 0 -2375857.155 -11348011.112 -22745484.453 10 0 59642 45900.00000 0 350746.757 -10560250.350 -23232591.734 10 0 59642 46800.00000 0 3162154.506 -9976905.773 -23269292.920 10 0 59642 47700.00000 0 5987964.911 -9613135.106 -22854466.730 10 0 59642 48600.00000 0 8756295.666 -9471434.175 -21995746.620 10 0 59642 49500.00000 0 11396539.049 -9541577.590 -20709405.823 10 0 59642 50400.00000 0 13842079.390 -9801111.635 -19020073.832 10 0 59642 51300.00000 0 16032859.329 -10216381.291 -16960287.105 10 0 59642 52200.00000 0 17917687.086 -10744050.515 -14569880.139 10 0 59642 53100.00000 0 19456186.614 -11333053.417 -11895226.695 10 0 59642 54000.00000 0 20620306.941 -11926894.765 -8988344.410 10 0 59642 54900.00000 0 21395325.045 -12466202.411 -5905879.543 10 0 59642 55800.00000 0 21780297.937 -12891422.345 -2707991.895 10 0 59642 56700.00000 0 21787943.330 -13145539.990 542837.275 10 0 59642 57600.00000 0 21443953.126 -13176709.486 3783049.212 10 0 59642 58500.00000 0 20785768.855 -12940676.125 6949276.650 10 0 59642 59400.00000 0 19860872.018 -12402885.909 9979610.185 10 0 59642 60300.00000 0 18724663.672 -11540189.776 12814834.403 10 0 59642 61200.00000 0 17438025.655 -10342068.005 15399606.779 10 0 59642 62100.00000 0 16064669.606 -8811321.503 17683554.125 10 0 59642 63000.00000 0 14668388.730 -6964200.177 19622263.623 10 0 59642 63900.00000 0 13310330.897 -4829963.392 21178148.269 10 0 59642 64800.00000 0 12046409.846 -2449892.060 22321170.012 10 0 59642 65700.00000 0 10924964.283 124204.628 23029407.350 10 0 59642 66600.00000 0 9984763.127 2831923.400 23289457.925 10 0 59642 67500.00000 0 9253439.294 5606559.574 23096670.382 10 0 59642 68400.00000 0 8746415.522 8377661.264 22455203.369 10 0 59642 69300.00000 0 8466364.285 11073738.008 21377913.046 10 0 59642 70200.00000 0 8403221.077 13625011.257 19886073.665 10 0 59642 71100.00000 0 8534747.048 15966093.368 18008938.762 10 0 59642 72000.00000 0 8827614.262 18038485.400 15783153.201 10 0 59642 72900.00000 0 9238965.396 19792792.407 13252028.716 10 0 59642 73800.00000 0 9718380.541 21190567.009 10464697.665 10 0 59642 74700.00000 0 10210167.507 22205707.661 7475161.646 10 0 59642 75600.00000 0 10655879.227 22825356.546 4341253.084 10 0 59642 76500.00000 0 10996953.075 23050262.563 1123529.067 10 0 59642 77400.00000 0 11177362.339 22894596.519 -2115882.166 10 0 59642 78300.00000 0 11146169.946 22385227.956 -5314461.305 10 0 59642 79200.00000 0 10859878.741 21560494.611 -8410483.475 10 0 59642 80100.00000 0 10284481.023 20468515.950 -11344188.008 10 0 59642 81000.00000 0 9397122.269 19165120.497 -14058911.749 10 0 59642 81900.00000 0 8187309.487 17711472.150 -16502165.862 10 0 59642 82800.00000 0 6657613.053 16171492.861 -18626636.862 10 0 59642 83700.00000 0 4823831.125 14609187.301 -20391093.924 10 0 59642 84600.00000 0 2714607.365 13085979.253 -21761185.922 10 0 59642 85500.00000 0 370514.830 11658169.342 -22710113.170 10 0 59643 0.00000 0 -2157359.263 10374619.223 -23219160.800 10 0 59643 900.00000 0 -4809274.304 9274757.848 -23278082.907 10 0 59643 1800.00000 0 -7519065.538 8386995.178 -22885328.073 10 0 59643 2700.00000 0 -10216657.044 7727608.437 -22048100.930 10 0 59643 3600.00000 0 -12830753.334 7300151.052 -20782255.410 10 0 59643 4500.00000 0 -15291600.589 7095410.549 -19112019.465 10 0 59643 5400.00000 0 -17533703.060 7091919.659 -17069553.815 10 0 59643 6300.00000 0 -19498381.002 7257001.414 -14694350.723 10 0 59643 7200.00000 0 -21136061.879 7548306.049 -12032482.350 10 0 59643 8100.00000 0 -22408206.927 7915775.961 -9135711.786 10 0 59643 9000.00000 0 -23288789.862 8303955.858 -6060483.296 10 0 59643 9900.00000 0 -23765262.995 8654549.512 -2866811.671 10 0 59643 10800.00000 0 -23838968.030 8909112.959 382906.625 10 0 59643 11700.00000 0 -23524972.673 9011767.293 3625135.523 10 0 59643 12600.00000 0 -22851339.388 8911812.776 6796467.780 10 0 59643 13500.00000 0 -21857857.613 8566129.946 9834892.210 10 0 59643 14400.00000 0 -20594294.443 7941262.607 12681032.019 10 0 59643 15300.00000 0 -19118239.947 7015091.684 15279327.206 10 0 59643 16200.00000 0 -17492640.912 5778027.059 17579135.696 10 0 59643 17100.00000 0 -15783130.037 4233665.855 19535730.120 10 0 59643 18000.00000 0 -14055265.956 2398889.280 21111169.893 10 0 59643 18900.00000 0 -12371802.442 303394.568 22275031.695 10 0 59643 19800.00000 0 -10790102.903 -2011317.029 23004984.973 10 0 59643 20700.00000 0 -9359809.048 -4493452.025 23287202.779 10 0 59643 21600.00000 0 -8120860.573 -7082871.271 23116602.048 10 0 59643 22500.00000 0 -7101946.955 -9713388.478 22496911.035 10 0 59643 23400.00000 0 -6319453.386 -12315323.714 21440565.088 10 0 59643 24300.00000 0 -5776941.532 -14818205.125 19968435.211 10 0 59643 25200.00000 0 -5465183.184 -17153506.848 18109396.771 10 0 59643 26100.00000 0 -5362741.739 -19257310.298 15899748.538 10 0 59643 27000.00000 0 -5437073.872 -21072780.075 13382494.547 10 0 59643 27900.00000 0 -5646102.596 -22552353.937 10606503.423 10 0 59643 28800.00000 0 -5940193.895 -23659558.440 7625561.750 10 0 59643 29700.00000 0 -6264452.999 -24370377.588 4497339.467 10 0 59643 30600.00000 0 -6561243.777 -24674120.220 1282286.597 10 0 59643 31500.00000 0 -6772826.043 -24573752.303 -1957518.417 10 0 59643 32400.00000 0 -6844001.130 -24085682.071 -5159547.973 10 0 59643 33300.00000 0 -6724655.993 -23239008.013 -8262011.032 10 0 59643 34200.00000 0 -6372100.477 -22074261.337 -11205024.126 10 0 59643 35100.00000 0 -5753100.745 -20641694.868 -13931746.929 10 0 59643 36000.00000 0 -4845524.202 -18999188.535 -16389462.256 10 0 59643 36900.00000 0 -3639526.867 -17209857.066 -18530581.219 10 0 59643 37800.00000 0 -2138232.467 -15339457.567 -20313555.496 10 0 59643 38700.00000 0 -357872.933 -13453702.834 -21703680.108 10 0 59643 39600.00000 0 1672618.281 -11615590.440 -22673771.607 10 0 59643 40500.00000 0 3912546.552 -9882857.247 -23204708.520 10 0 59643 41400.00000 0 6310894.809 -8305664.456 -23285822.887 10 0 59643 42300.00000 0 8808204.614 -6924609.471 -22915133.992 10 0 59643 43200.00000 0 11338825.063 -5769147.998 -22099417.884 10 0 59643 44100.00000 0 13833439.084 -4856493.483 -20854108.979 10 0 59643 45000.00000 0 16221764.165 -4191041.718 -19203033.018 10 0 59643 45900.00000 0 18435316.270 -3764346.770 -17177973.860 10 0 59643 46800.00000 0 20410121.750 -3555651.390 -14818079.902 10 0 59643 47700.00000 0 22089262.948 -3532951.447 -12169119.561 10 0 59643 48600.00000 0 23425149.092 -3654550.862 -9282598.716 10 0 59643 49500.00000 0 24381414.822 -3871041.837 -6214756.474 10 0 59643 50400.00000 0 24934363.803 -4127626.257 -3025459.036 10 0 59643 51300.00000 0 25073894.085 -4366678.473 222985.828 10 0 59643 52200.00000 0 24803864.112 -4530438.506 3467068.775 10 0 59643 53100.00000 0 24141882.591 -4563718.446 6643346.618 10 0 59643 54000.00000 0 23118530.776 -4416503.802 9689710.253 10 0 59643 54900.00000 0 21776050.672 -4046336.022 12546625.058 10 0 59643 55800.00000 0 20166556.231 -3420372.121 15158316.701 10 0 59643 56700.00000 0 18349845.374 -2517031.695 17473876.902 10 0 59643 57600.00000 0 16390907.843 -1327160.015 19448265.917 10 0 59643 58500.00000 0 14357236.670 145342.547 21043191.254 10 0 59643 59400.00000 0 12316058.726 1883451.104 22227845.511 10 0 59643 60300.00000 0 10331602.380 3857508.784 22979489.793 10 0 59643 61200.00000 0 8462517.641 6026258.934 23283872.806 10 0 59643 62100.00000 0 6759556.499 8338371.989 23135479.569 10 0 59643 63000.00000 0 5263609.022 10734401.398 22537607.295 10 0 59643 63900.00000 0 4004174.946 13149085.427 21502269.454 10 0 59643 64800.00000 0 2998331.319 15513897.966 20049932.333 10 0 59643 65700.00000 0 2250235.619 17759741.882 18209091.323 10 0 59643 66600.00000 0 1751181.235 19819673.221 16015696.990 10 0 59643 67500.00000 0 1480199.234 21631544.204 13512443.297 10 0 59643 68400.00000 0 1405177.959 23140456.864 10747932.560 10 0 59643 69300.00000 0 1484451.054 24300927.501 7775733.579 10 0 59643 70200.00000 0 1668785.578 25078674.401 4653350.929 10 0 59643 71100.00000 0 1903686.032 25451956.890 1441124.586 10 0 59643 72000.00000 0 2131917.587 25412412.197 -1798919.825 10 0 59643 72900.00000 0 2296143.280 24965357.080 -5004249.374 10 0 59643 73800.00000 0 2341565.574 24129542.807 -8113009.709 10 0 59643 74700.00000 0 2218462.790 22936374.163 -11065197.227 10 0 59643 75600.00000 0 1884515.199 21428624.677 -13803796.832 10 0 59643 76500.00000 0 1306824.125 19658700.521 -16275865.116 10 0 59643 77400.00000 0 463539.779 17686523.746 -18433539.605 10 0 59643 78300.00000 0 -654970.848 15577120.831 -20234956.020 10 0 59643 79200.00000 0 -2045466.238 13398014.546 -21645056.798 10 0 59643 80100.00000 0 -3691712.456 11216525.420 -22636275.726 10 0 59643 81000.00000 0 -5564913.087 9097092.995 -23189085.423 10 0 59643 81900.00000 0 -7624672.661 7098726.799 -23292396.403 10 0 59643 82800.00000 0 -9820457.292 5272692.326 -22943798.686 10 0 59643 83700.00000 0 -12093495.526 3660528.275 -22149639.453 10 0 59643 84600.00000 0 -14379043.716 2292478.321 -20924932.898 10 0 59643 85500.00000 0 -16608924.178 1186404.282 -19293101.422 10 0 59644 0.00000 0 -18714231.932 347227.889 -17285550.666 10 0 59644 900.00000 0 -20628098.789 -233073.869 -14941082.890 10 0 59644 1800.00000 0 -22288395.913 -574916.657 -12305160.735 10 0 59644 2700.00000 0 -23640263.931 -710023.240 -9429030.435 10 0 59644 3600.00000 0 -24638359.301 -679848.230 -6368723.374 10 0 59644 4500.00000 0 -25248720.809 -533580.210 -3183954.490 10 0 59644 5400.00000 0 -25450174.557 -325806.720 63059.863 10 0 59644 6300.00000 0 -25235215.568 -113942.975 3308839.834 10 0 59644 7200.00000 0 -24610326.794 44463.933 6489909.078 10 0 59644 8100.00000 0 -23595720.961 94437.729 9544063.337 10 0 59644 9000.00000 0 -22224516.032 -13835.604 12411612.869 10 0 59644 9900.00000 0 -20541380.053 -322640.774 15036571.594 10 0 59644 10800.00000 0 -18600704.355 -864693.648 17367767.400 10 0 59644 11700.00000 0 -16464384.455 -1661517.625 19359850.271 10 0 59644 12600.00000 0 -14199304.768 -2722305.621 20974177.551 10 0 59644 13500.00000 0 -11874635.333 -4043315.909 22179559.118 10 0 59644 14400.00000 0 -9559055.968 -5607826.546 22952848.677 10 0 59644 15300.00000 0 -7318025.434 -7386648.957 23279371.119 10 0 59644 16200.00000 0 -5211209.995 -9339177.293 23153179.707 10 0 59644 17100.00000 0 -3290177.928 -11414927.735 22577140.437 10 0 59644 18000.00000 0 -1596454.294 -13555501.536 21562844.432 10 0 59644 18900.00000 0 -160014.227 -15696888.444 20130352.533 10 0 59644 19800.00000 0 1001725.987 -17772013.659 18307779.188 10 0 59644 20700.00000 0 1884381.824 -19713421.981 16130725.543 10 0 59644 21600.00000 0 2496521.708 -21455987.988 13641574.058 10 0 59644 22500.00000 0 2859043.446 -22939540.642 10888659.071 10 0 59644 23400.00000 0 3004035.118 -24111294.765 7925329.731 10 0 59644 24300.00000 0 2973170.475 -24927990.297 4808923.174 10 0 59644 25200.00000 0 2815707.594 -25357652.461 1599667.097 10 0 59644 26100.00000 0 2586175.271 -25380901.599 -1640468.053 10 0 59644 27000.00000 0 2341844.070 -24991759.923 -4848946.528 10 0 59644 27900.00000 0 2140087.294 -24197922.758 -7963853.263 10 0 59644 28800.00000 0 2035741.439 -23020483.579 -10925067.227 10 0 59644 29700.00000 0 2078575.532 -21493124.075 -13675401.326 10 0 59644 30600.00000 0 2310974.360 -19660802.038 -16161688.705 10 0 59644 31500.00000 0 2765931.905 -17577990.061 -18335796.036 10 0 59644 32400.00000 0 3465439.020 -15306536.183 -20155545.648 10 0 59644 33300.00000 0 4419333.538 -12913232.873 -21585529.724 10 0 59644 34200.00000 0 5624662.491 -10467192.900 -22597801.300 10 0 59644 35100.00000 0 7065585.601 -8037138.629 -23172428.721 10 0 59644 36000.00000 0 8713827.235 -5688715.357 -23297902.196 10 0 59644 36900.00000 0 10529661.598 -3481938.968 -22971383.281 10 0 59644 37800.00000 0 12463393.889 -1468883.334 -22198790.679 10 0 59644 38700.00000 0 14457279.290 308296.199 -20994718.352 10 0 59644 39600.00000 0 16447802.779 1818919.941 -19382184.941 10 0 59644 40500.00000 0 18368226.833 3044855.229 -17392216.650 10 0 59644 41400.00000 0 20151301.783 3981055.407 -15063269.054 10 0 59644 42300.00000 0 21732025.368 4635541.911 -12440496.927 10 0 59644 43200.00000 0 23050334.805 5028828.595 -9574884.629 10 0 59644 44100.00000 0 24053616.286 5192811.406 -6522253.099 10 0 59644 45000.00000 0 24698923.625 5169169.878 -3342162.877 10 0 59644 45900.00000 0 24954809.580 5007348.567 -96735.429 10 0 59644 46800.00000 0 24802689.589 4762205.405 3150582.559 10 0 59644 47700.00000 0 24237677.783 4491428.951 6336285.324 10 0 59644 48600.00000 0 23268858.156 4252837.117 9398077.116 10 0 59644 49500.00000 0 21918978.518 4101675.310 12276116.546 10 0 59644 50400.00000 0 20223580.354 4088031.947 14914208.966 10 0 59644 51300.00000 0 18229602.377 4254483.939 17260921.266 10 0 59644 52200.00000 0 15993518.517 4634074.236 19270595.597 10 0 59644 53100.00000 0 13579091.063 5248708.498 20904241.185 10 0 59644 54000.00000 0 11054835.808 6108039.151 22130286.804 10 0 59644 54900.00000 0 8491307.657 7208883.553 22925179.943 10 0 59644 55800.00000 0 5958321.966 8535199.506 23273822.437 10 0 59644 56700.00000 0 3522228.465 10058617.416 23169836.087 10 0 59644 57600.00000 0 1243351.156 11739504.714 22615655.490 10 0 59644 58500.00000 0 -826300.345 13528515.810 21622448.767 10 0 59644 59400.00000 0 -2644955.138 15368560.968 20209870.196 10 0 59644 60300.00000 0 -4182564.069 17197110.492 18405651.728 10 0 59644 61200.00000 0 -5421783.411 18948737.275 16245043.164 10 0 59644 62100.00000 0 -6358422.203 20557791.677 13770113.213 10 0 59644 63000.00000 0 -7001338.561 21961097.853 11028925.735 10 0 59644 63900.00000 0 -7371792.730 23100560.334 8074607.536 10 0 59644 64800.00000 0 -7502286.893 23925573.966 4964325.479 10 0 59644 65700.00000 0 -7434942.348 24395138.625 1758192.046 10 0 59644 66600.00000 0 -7219483.184 24479592.510 -1481880.493 10 0 59644 67500.00000 0 -6910911.330 24161893.458 -4693356.562 10 0 59644 68400.00000 0 -6566970.026 23438396.166 -7814263.335 10 0 59644 69300.00000 0 -6245501.112 22319093.595 -10784365.166 10 0 59644 70200.00000 0 -6001805.667 20827312.463 -13546305.594 10 0 59644 71100.00000 0 -5886117.333 18998874.665 -16046696.711 10 0 59644 72000.00000 0 -5941293.107 16880758.009 -18237136.450 10 0 59644 72900.00000 0 -6200817.743 14529309.778 -20075135.587 10 0 59644 73800.00000 0 -6687205.422 12008084.708 -21524937.599 10 0 59644 74700.00000 0 -7410866.454 9385394.424 -22558216.025 10 0 59644 75600.00000 0 -8369488.228 6731667.235 -23154635.892 10 0 59644 76500.00000 0 -9547958.868 4116725.384 -23302267.725 10 0 59644 77400.00000 0 -10918839.975 1607090.895 -22997844.884 10 0 59644 78300.00000 0 -12443372.313 -736569.382 -22246857.455 10 0 59644 79200.00000 0 -14072976.034 -2861753.777 -21063478.588 10 0 59644 80100.00000 0 -15751186.038 -4726094.282 -19470322.145 10 0 59644 81000.00000 0 -17415944.191 -6298900.434 -17498033.617 10 0 59644 81900.00000 0 -19002154.189 -7562212.523 -15184719.676 10 0 59644 82800.00000 0 -20444392.587 -8511318.125 -12575225.204 10 0 59644 83700.00000 0 -21679661.690 -9154708.544 -9720270.228 10 0 59644 84600.00000 0 -22650066.988 -9513475.557 -6675462.592 10 0 59644 85500.00000 0 -23305303.923 -9620173.008 -3500205.650 99